METEOR 1-12

导读

METEOR 1-12是苏联(CIS,独立国家联合体承接苏联航天遗产)于1972年6月30日发射的气象卫星,属于前苏联第一代Meteor - 1气象卫星系列。它运行在约900km高度的非太阳同步极轨道,配备电视相机系统、红外扫描仪等载荷,可获取云图与大气辐射数据,支撑气象观测与气候研究,是早期极轨气象卫星探索的重要组成,为后续苏联气象卫星发展积累了关键技术经验。

基本信息
目录编号:
6079
目录名称:
METEOR 1-12
国际标识:
1972-049A
轨道中心:
EARTH
卫星名称:
METEOR 1-12
卫星全名:
--
卫星状态:
在轨 (已飞行19797 天)
发射日期:
1972-06-30 UTC
国别 :
俄罗斯(独联体) (CIS)
星等 :
--
该卫星已列入 空间交会检测服务 Space Conjunction Data Service (SCDS) ,当前飞行风险评估等级: 无高风险
轨道信息
数据来源 国际轨道数据 AOE轨道数据
星历时间 2026-09-11T21:38:39+0800
13小时前
查看轨道信息
2026-09-06T22:00:00+0800
5天前
查看轨道信息
半长轴 7259.522km 7259.528km
偏心率 0.0009895 0.0009627
轨道倾角 81.224° 81.226°
近地点辐角 228.375° 246.038°
升交点赤经 263.990° 268.802°
平近点角 131.657° 138.246°
近地点 874.201km 874.402km
远地点 888.569km 888.38km
周期 102.594分钟 102.594分钟
每日圈数 14.035917 14.0359
详细信息
使用方式:
暂无
2D轨道图
3D轨道图
轨道高度分析图
轨道倾角分析图
轨道综合分析图
查看轨道综合分析图
与全量物体交会距离演化趋势
与全量物体交会风险概率演化趋势